User: anonymous   Login
Location: Hylvaty SDH
(49.9612°N, 16.4057°E)
Time: 14:31:18
(UTC+02:00)
Language:

Tiros 1 despin weight - Orbit

View from above orbital plane
View from above orbital plane
View from above satellite
View from above satellite

Ground track
Ground track

The orbit data is extracted from the following two-line orbital elements,

1   115U 60002D   20293.71466047 +.00000044 +00000-0 +32414-4 0  9992
2   115 048.1678 036.6881 0033917 076.4883 283.9806 14.83630924231422
Epoch (UTC): 19 October 2020 17:09:06
Eccentricity: 0.0033917
inclination: 48.1678°
perigee height: 594 km
apogee height: 641 km
right ascension of ascending node: 36.6881°
argument of perigee: 76.4883°
revolutions per day: 14.83630924
mean anomaly at epoch: 283.9806°
orbit number at epoch: 23142

The dashed part of the orbit path shows where the satellite is in the earth's shadow,  

DLR